When you browse on this site, cookies collect data to enhance your experience and personalize the content and advertising you see.
Visit our Privacy Policy to learn more. By continuing to use the site, you agree to this use of cookies and data.
  • In France
  • List of Countries
  • For 7 days
  • Water Temperature
  • Satellite Maps
  • Weather Map
  • Weather Widgets
  • user-avatar
    Login

    Hourly Weather Yerevan

    Today, 23 July, Tuesday

    Time Temperature Precipitation Wind Pressure Humidity
    00:00 +28°C° 0 mm 4 mps 687 mmHg 51%
    01:00 +28°C° 0 mm 4 mps 687 mmHg 53%
    02:00 +27°C° 0 mm 3 mps 687 mmHg 54%
    03:00 +27°C° 0 mm 3 mps 687 mmHg 56%
    04:00 +27°C° 0 mm 3 mps 687 mmHg 56%
    05:00 +27°C° 0 mm 2 mps 687 mmHg 55%
    06:00 +27°C° 0 mm 2 mps 687 mmHg 54%
    07:00 +29°C° 0 mm 2 mps 688 mmHg 49%
    08:00 +31°C° 0 mm 2 mps 688 mmHg 44%
    09:00 +34°C° 0 mm 2 mps 688 mmHg 38%
    10:00 +36°C° 0 mm 2 mps 688 mmHg 34%
    11:00 +38°C° 0 mm 2 mps 688 mmHg 30%
    12:00 +39°C° 0 mm 3 mps 688 mmHg 25%
    13:00 +41°C° 0 mm 4 mps 687 mmHg 23%
    14:00 +43°C° 0 mm 4 mps 687 mmHg 21%
    15:00 +45°C° 0 mm 5 mps 686 mmHg 19%
    16:00 +44°C° 0 mm 6 mps 686 mmHg 21%
    17:00 +41°C° 0 mm 7 mps 686 mmHg 22%
    18:00 +40°C° 0 mm 8 mps 686 mmHg 24%
    19:00 +38°C° 0 mm 6 mps 686 mmHg 31%
    20:00 +34°C° 0 mm 5 mps 686 mmHg 37%
    21:00 +32°C° 0 mm 4 mps 686 mmHg 44%
    22:00 +30°C° 0 mm 4 mps 686 mmHg 47%
    23:00 +28°C° 0 mm 3 mps 686 mmHg 51%

    Tomorrow, 24 July, Wednesday

    Time Temperature Precipitation Wind Pressure Humidity
    00:00 +27°C° 0 mm 3 mps 686 mmHg 55%
    01:00 +26°C° 0 mm 3 mps 686 mmHg 57%
    02:00 +26°C° 0 mm 3 mps 686 mmHg 59%
    03:00 +25°C° 0 mm 2 mps 685 mmHg 61%
    04:00 +26°C° 0 mm 2 mps 686 mmHg 59%
    05:00 +26°C° 0 mm 2 mps 686 mmHg 57%
    06:00 +26°C° 0 mm 2 mps 686 mmHg 55%
    07:00 +29°C° 0 mm 2 mps 686 mmHg 49%
    08:00 +31°C° 0 mm 2 mps 687 mmHg 43%
    09:00 +34°C° 0 mm 2 mps 687 mmHg 37%
    10:00 +36°C° 0 mm 2 mps 687 mmHg 32%
    11:00 +37°C° 0 mm 2 mps 687 mmHg 26%
    12:00 +39°C° 0 mm 1 mps 687 mmHg 21%
    13:00 +40°C° 0 mm 2 mps 687 mmHg 19%
    14:00 +41°C° 0 mm 2 mps 686 mmHg 17%
    15:00 +42°C° 0 mm 2 mps 686 mmHg 15%
    16:00 +41°C° 0 mm 2 mps 686 mmHg 15%
    17:00 +41°C° 0 mm 2 mps 686 mmHg 15%
    18:00 +41°C° 0 mm 2 mps 686 mmHg 15%
    19:00 +37°C° 0 mm 2 mps 686 mmHg 20%
    20:00 +34°C° 0 mm 2 mps 687 mmHg 25%
    21:00 +30°C° 0 mm 2 mps 687 mmHg 31%
    22:00 +29°C° 0 mm 2 mps 687 mmHg 34%
    23:00 +27°C° 0 mm 2 mps 687 mmHg 38%

    Day after tomorrow, 25 July, Thursday

    Time Temperature Precipitation Wind Pressure Humidity
    00:00 +26°C° 0 mm 2 mps 687 mmHg 42%
    01:00 +25°C° 0 mm 2 mps 687 mmHg 45%
    02:00 +24°C° 0 mm 2 mps 687 mmHg 48%
    03:00 +24°C° 0 mm 1 mps 687 mmHg 50%
    04:00 +24°C° 0 mm 1 mps 687 mmHg 48%
    05:00 +25°C° 0 mm 1 mps 687 mmHg 45%
    06:00 +26°C° 0 mm 1 mps 687 mmHg 42%
    07:00 +28°C° 0 mm 1 mps 688 mmHg 35%
    08:00 +31°C° 0 mm 2 mps 688 mmHg 28%
    09:00 +35°C° 0 mm 2 mps 689 mmHg 20%
    10:00 +36°C° 0 mm 2 mps 689 mmHg 17%
    11:00 +38°C° 0 mm 2 mps 688 mmHg 13%
    12:00 +39°C° 0 mm 2 mps 688 mmHg 10%
    13:00 +40°C° 0 mm 2 mps 688 mmHg 9%
    14:00 +42°C° 0 mm 3 mps 688 mmHg 7%
    15:00 +43°C° 0 mm 3 mps 688 mmHg 6%
    16:00 +42°C° 0 mm 4 mps 688 mmHg 7%
    17:00 +42°C° 0 mm 5 mps 688 mmHg 7%
    18:00 +41°C° 0 mm 6 mps 687 mmHg 7%
    19:00 +38°C° 0 mm 6 mps 688 mmHg 13%
    20:00 +34°C° 0 mm 5 mps 688 mmHg 19%
    21:00 +29°C° 0 mm 5 mps 688 mmHg 25%
    22:00 +28°C° 0 mm 4 mps 688 mmHg 32%
    23:00 +27°C° 0 mm 4 mps 688 mmHg 39%

    26 July, Friday

    Time Temperature Precipitation Wind Pressure Humidity
    00:00 +25°C° 0 mm 4 mps 688 mmHg 47%
    01:00 +25°C° 0 mm 4 mps 688 mmHg 49%
    02:00 +23°C° 0 mm 4 mps 688 mmHg 52%
    03:00 +22°C° 0 mm 3 mps 688 mmHg 54%
    04:00 +24°C° 0 mm 3 mps 688 mmHg 53%
    05:00 +24°C° 0 mm 3 mps 688 mmHg 52%
    06:00 +24°C° 0 mm 3 mps 688 mmHg 51%
    07:00 +26°C° 0 mm 3 mps 688 mmHg 45%
    08:00 +29°C° 0 mm 3 mps 689 mmHg 40%
    09:00 +31°C° 0 mm 3 mps 689 mmHg 34%
    10:00 +33°C° 0 mm 3 mps 689 mmHg 29%
    11:00 +35°C° 0 mm 3 mps 689 mmHg 24%
    12:00 +37°C° 0 mm 3 mps 688 mmHg 19%
    13:00 +38°C° 0 mm 3 mps 688 mmHg 18%
    14:00 +39°C° 0 mm 2 mps 688 mmHg 16%
    15:00 +40°C° 0 mm 2 mps 687 mmHg 14%
    16:00 +39°C° 0 mm 3 mps 687 mmHg 17%
    17:00 +38°C° 0 mm 4 mps 687 mmHg 19%
    18:00 +37°C° 0 mm 4 mps 687 mmHg 21%
    19:00 +34°C° 0 mm 4 mps 687 mmHg 29%
    20:00 +30°C° 0 mm 4 mps 687 mmHg 37%
    21:00 +27°C° 0 mm 3 mps 687 mmHg 44%
    22:00 +27°C° 0 mm 3 mps 687 mmHg 46%
    23:00 +26°C° 0 mm 3 mps 687 mmHg 48%

    27 July, Saturday

    Time Temperature Precipitation Wind Pressure Humidity
    00:00 +25°C° 0 mm 2 mps 687 mmHg 50%
    01:00 +24°C° 0 mm 2 mps 687 mmHg 53%
    02:00 +24°C° 0 mm 2 mps 687 mmHg 55%
    03:00 +23°C° 0 mm 2 mps 687 mmHg 57%
    04:00 +23°C° 0 mm 2 mps 687 mmHg 55%
    05:00 +24°C° 0 mm 2 mps 687 mmHg 54%
    06:00 +24°C° 0 mm 2 mps 687 mmHg 52%
    07:00 +26°C° 0 mm 1 mps 687 mmHg 47%
    08:00 +28°C° 0 mm 1 mps 687 mmHg 41%
    09:00 +30°C° 0 mm 1 mps 687 mmHg 35%
    10:00 +32°C° 0 mm 1 mps 687 mmHg 32%
    11:00 +34°C° 0 mm 1 mps 687 mmHg 29%
    12:00 +36°C° 0 mm 2 mps 687 mmHg 25%
    13:00 +37°C° 0 mm 2 mps 686 mmHg 23%
    14:00 +38°C° 0 mm 2 mps 686 mmHg 21%
    15:00 +39°C° 0 mm 3 mps 686 mmHg 19%
    16:00 +39°C° 0 mm 3 mps 685 mmHg 21%
    17:00 +38°C° 0 mm 3 mps 685 mmHg 23%
    18:00 +37°C° 0 mm 3 mps 685 mmHg 26%
    19:00 +34°C° 0 mm 3 mps 685 mmHg 34%
    20:00 +30°C° 0 mm 3 mps 685 mmHg 41%
    21:00 +27°C° 0 mm 3 mps 685 mmHg 49%
    22:00 +26°C° 0 mm 3 mps 685 mmHg 52%
    23:00 +26°C° 0 mm 3 mps 685 mmHg 55%

    28 July, Sunday

    Time Temperature Precipitation Wind Pressure Humidity
    00:00 +25°C° 0 mm 3 mps 684 mmHg 57%
    01:00 +24°C° 0 mm 2 mps 684 mmHg 59%
    02:00 +24°C° 0 mm 2 mps 684 mmHg 61%
    03:00 +23°C° 0 mm 2 mps 684 mmHg 63%
    04:00 +23°C° 0 mm 2 mps 684 mmHg 61%
    05:00 +24°C° 0 mm 2 mps 684 mmHg 60%
    06:00 +24°C° 0 mm 2 mps 684 mmHg 58%
    07:00 +26°C° 0 mm 2 mps 685 mmHg 52%
    08:00 +28°C° 0 mm 1 mps 685 mmHg 45%
    09:00 +30°C° 0 mm 1 mps 685 mmHg 39%
    10:00 +32°C° 0 mm 1 mps 685 mmHg 35%
    11:00 +34°C° 0 mm 1 mps 685 mmHg 30%
    12:00 +36°C° 0 mm 1 mps 685 mmHg 26%
    13:00 +37°C° 0 mm 1 mps 684 mmHg 24%
    14:00 +39°C° 0 mm 2 mps 684 mmHg 21%
    15:00 +40°C° 0 mm 2 mps 684 mmHg 18%
    16:00 +39°C° 0.1 mm 3 mps 684 mmHg 22%
    17:00 +39°C° 0.1 mm 5 mps 684 mmHg 26%
    18:00 +38°C° 0.1 mm 6 mps 683 mmHg 29%
    19:00 +34°C° 0.1 mm 5 mps 684 mmHg 36%
    20:00 +30°C° 0.1 mm 4 mps 684 mmHg 43%
    21:00 +27°C° 0.1 mm 3 mps 684 mmHg 50%
    22:00 +27°C° 0.2 mm 3 mps 684 mmHg 53%
    23:00 +26°C° 0.2 mm 2 mps 684 mmHg 56%
    Show more